Weather History for Farmingdale, NY

Change the Weather History Date:

Thursday, February 21, 2013

  Actual Average Record
Temperature  
Mean Temperature 28 °F -  
Max Temperature 34 °F 40 °F 63 °F (2002)
Min Temperature 23 °F 26 °F 19 °F (2001)
Degree Days  
Heating Degree Days 36    
Moisture  
Dew Point 11 °F    
Average Humidity 49    
Maximum Humidity 60    
Minimum Humidity 40    
Precipitation  
Precipitation 0.00 in - - ()
Sea Level Pressure  
Sea Level Pressure 30.05 in    
Wind  
Wind Speed 14 mph (NW)    
Max Wind Speed 21 mph    
Max Gust Speed 34 mph    
Visibility 10 miles    
Events      
Averages and records for this station are not official NWS values.
T = Trace of Precipitation, MM = Missing Value Source: NWS Daily Summary

Daily Weather History Graph

Daily Weather History Graph

Search for Another Location

Airport:

Trip Planner

Search our weather history database for the weather conditions in past years. The results will help you decide how hot, cold, wet, or windy it might be!

Date:

Astronomy

Feb. 21, 2013 Rise Set
Actual Time 6:39 AM EST 5:35 PM EST
Civil Twilight 6:11 AM EST 6:03 PM EST
Nautical Twilight 5:39 AM EST 6:35 PM EST
Astronomical Twilight 5:07 AM EST 7:07 PM EST
Moon 1:47 PM EST (2/21) 3:42 AM EST (2/21)
Length of Visible Light 11h 52m
Length of Day
10h 56m
Waxing Gibbous, 83% of the Moon is Illuminated
Feb 21
Waxing Gibbous
Feb 25
Full
Mar 4
Last Quarter
Mar 11
New
Mar 19
First Quarter

Hourly Weather History & Observations

Time (EST) Temp. Windchill Dew Point Humidity Pressure Visibility Wind Dir Wind Speed Gust Speed Precip Events Conditions
12:53 AM 25.0 °F 12.6 °F 9.0 °F 51% 29.98 in 10.0 mi WNW 15.0 mph 25.3 mph N/A   Clear
1:53 AM 24.1 °F 14.4 °F 9.0 °F 53% 29.98 in 10.0 mi WNW 9.2 mph 21.9 mph N/A   Clear
2:53 AM 24.1 °F 15.2 °F 9.0 °F 53% 29.96 in 10.0 mi WNW 8.1 mph - N/A   Clear
3:53 AM 24.1 °F 12.5 °F 9.0 °F 53% 29.97 in 10.0 mi WNW 12.7 mph 19.6 mph N/A   Clear
4:53 AM 23.0 °F 12.4 °F 10.0 °F 58% 29.98 in 10.0 mi WNW 10.4 mph - N/A   Clear
5:53 AM 25.0 °F 12.6 °F 10.0 °F 53% 29.99 in 10.0 mi WNW 15.0 mph 24.2 mph N/A   Overcast
6:53 AM 24.1 °F 13.1 °F 9.0 °F 53% 30.00 in 10.0 mi NW 11.5 mph 28.8 mph N/A   Overcast
7:53 AM 26.1 °F 14.5 °F 9.0 °F 49% 29.99 in 10.0 mi WNW 13.8 mph 23.0 mph N/A   Scattered Clouds
8:53 AM 28.0 °F 16.5 °F 9.0 °F 45% 30.00 in 10.0 mi WNW 15.0 mph 26.5 mph N/A   Scattered Clouds
9:53 AM 28.9 °F 18.6 °F 10.0 °F 45% 29.99 in 10.0 mi NW 12.7 mph 29.9 mph N/A   Clear
10:53 AM 30.9 °F 19.1 °F 10.0 °F 42% 29.99 in 10.0 mi NNW 18.4 mph 32.2 mph N/A   Clear
11:53 AM 33.1 °F 22.2 °F 10.9 °F 40% 29.98 in 10.0 mi WNW 17.3 mph 27.6 mph N/A   Mostly Cloudy
12:53 PM 33.1 °F 22.2 °F 12.0 °F 42% 29.97 in 10.0 mi NW 17.3 mph 29.9 mph N/A   Clear
1:53 PM 34.0 °F 23.4 °F 12.0 °F 40% 29.97 in 10.0 mi NW 17.3 mph 28.8 mph N/A   Clear
2:53 PM 34.0 °F 22.4 °F 12.0 °F 40% 29.98 in 10.0 mi WNW 20.7 mph 34.5 mph N/A   Clear
3:53 PM 33.1 °F 21.9 °F 10.9 °F 40% 30.01 in 10.0 mi NW 18.4 mph 29.9 mph N/A   Clear
4:53 PM 32.0 °F 22.1 °F 12.0 °F 44% 30.03 in 10.0 mi NW 13.8 mph 27.6 mph N/A   Clear
5:53 PM 30.0 °F 20.0 °F 12.0 °F 47% 30.08 in 10.0 mi NNW 12.7 mph 23.0 mph N/A   Clear
6:53 PM 28.9 °F 17.7 °F 12.9 °F 51% 30.11 in 10.0 mi NNW 15.0 mph 24.2 mph N/A   Clear
7:53 PM 28.9 °F 15.8 °F 12.9 °F 51% 30.17 in 10.0 mi NNW 20.7 mph 28.8 mph N/A   Clear
8:53 PM 28.0 °F 17.0 °F 12.9 °F 53% 30.22 in 10.0 mi NNW 13.8 mph 19.6 mph N/A   Clear
9:53 PM 27.0 °F 18.0 °F 12.9 °F 56% 30.25 in 10.0 mi NNW 9.2 mph - N/A   Clear
10:53 PM 26.1 °F 15.6 °F 14.0 °F 60% 30.26 in 10.0 mi NNW 11.5 mph 17.3 mph N/A   Clear
11:53 PM 27.0 °F 14.3 °F 14.0 °F 58% 30.27 in 10.0 mi North 17.3 mph 23.0 mph N/A   Clear